Theta_e
312 311 310 309 308 308 309 310 310 308 306 305 304 302 302 301 300 301 300 301 301 300 300 301 299 299 299 300 300 302 301 302 301 299 298 298 298 299 299 299 300 300 299
312 311 310 307 305 305 307 307 308 308 305 304 303 303 303 303 303 301 302 300 299 300 300 302 301 300 300 301 298 300 300 300 301 300 297 298 298 299 299 299 299 300 300
310 308 304 303 302 301 301 304 305 304 303 302 302 302 302 303 300 302 303 302 303 302 302 302 301 301 301 299 297 298 297 299 298 299 298 298 299 299 299 299 300 299 299
306 305 305 305 305 304 304 301 300 299 300 298 298 298 298 298 300 301 302 303 303 303 303 302 302 302 302 299 299 299 298 296 296 296 297 298 298 298 298 298 300 298 296
308 307 305 303 303 303 299 298 304 299 300 301 301 301 301 301 302 302 302 301 303 304 304 304 303 303 302 301 300 300 299 298 296 296 296 297 297 298 298 299 298 297 294
304 304 304 305 305 305 303 300 299 301 301 301 300 302 302 301 302 302 300 299 299 299 301 304 304 304 304 302 302 301 300 299 297 296 296 297 298 299 298 297 296 295 295
305 306 308 307 306 306 305 302 302 299 299 298 300 302 303 303 304 304 302 300 300 300 301 302 303 304 304 303 303 302 301 299 298 297 296 296 297 296 296 296 294 295 295
306 306 306 306 304 304 304 305 305 303 304 304 304 305 305 305 305 305 304 303 303 302 303 304 305 304 304 303 303 302 300 298 297 297 295 295 295 296 295 294 295 295 295
307 306 306 306 306 305 305 305 305 305 305 305 304 304 305 305 305 306 305 305 305 304 304 304 304 304 303 302 302 301 298 298 297 294 294 294 294 295 295 296 295 294 295
306 306 306 306 306 306 306 306 306 306 305 305 306 306 306 306 306 306 306 306 306 305 305 305 304 303 302 302 299 298 298 297 294 294 295 296 296 296 297 295 295 294 294
307 307 307 306 306 306 306 306 307 307 306 307 307 306 306 307 306 307 307 307 306 305 305 304 303 302 302 300 299 298 296 295 295 295 295 296 297 297 296 295 294 294 294
307 307 307 307 307 307 307 307 307 307 306 307 307 307 307 307 307 308 308 307 307 305 303 302 300 300 300 299 297 296 296 296 295 296 296 297 295 295 296 294 294 294 295
307 307 308 308 308 308 308 307 308 308 307 308 308 308 308 307 307 307 306 305 304 302 300 299 299 299 298 296 297 297 296 296 296 297 295 295 296 295 294 294 294 294 293
307 307 308 308 306 307 308 308 308 308 307 307 308 307 306 306 306 305 304 301 301 301 300 299 297 297 295 297 298 297 296 295 295 295 295 295 294 293 294 293 294 293 292
307 307 308 307 308 308 309 308 308 308 307 306 306 303 303 303 303 302 301 301 300 299 299 297 293 295 297 298 296 296 295 294 294 295 294 293 293 293 292 293 293 293 292
308 308 309 309 309 309 309 309 307 307 306 304 303 299 300 298 296 295 295 294 293 293 292 295 296 296 297 296 295 295 294 294 294 294 293 293 292 292 293 293 293 293 292
309 309 309 310 309 309 309 309 308 307 305 304 302 301 300 299 297 295 293 293 294 294 296 296 296 297 296 296 295 295 294 293 293 293 293 292 292 292 292 293 293 292 291
310 310 308 308 308 307 306 307 307 306 305 305 304 303 301 299 298 296 296 296 296 297 297 297 297 296 296 296 295 295 294 293 292 292 292 292 292 291 292 292 292 291 290
308 308 308 309 308 306 306 305 305 305 305 304 304 303 301 299 297 296 297 297 297 297 297 297 297 296 296 295 295 294 294 292 292 292 292 291 291 291 290 291 291 290 290
308 307 306 306 303 304 306 306 305 305 304 303 302 302 301 299 298 297 297 297 297 298 298 297 296 296 296 295 295 294 293 292 292 291 291 291 291 290 290 291 290 289 289
307 307 307 306 305 304 305 305 304 304 304 302 302 301 300 300 299 298 298 298 298 298 297 297 296 296 295 295 294 294 293 292 291 291 291 291 290 288 290 289 288 288 289
307 306 306 306 305 305 305 306 305 305 303 302 302 301 300 300 299 298 298 299 298 298 297 296 296 295 295 295 294 294 293 291 291 291 291 290 289 287 288 288 288 288 289
306 306 305 305 305 305 305 304 304 304 303 302 301 301 301 300 299 299 299 298 298 297 297 296 295 294 294 294 294 293 292 291 291 290 289 289 287 287 288 287 287 288 289
305 303 303 304 304 304 304 304 305 304 303 303 301 301 301 300 300 299 299 298 298 297 296 295 294 294 294 294 294 293 291 291 290 290 289 288 287 288 287 286 287 288 288
307 306 304 303 304 304 304 304 304 304 304 303 302 302 301 301 300 299 298 298 298 297 296 295 294 294 294 294 293 292 291 290 289 289 288 287 287 289 287 286 287 287 288
307 306 306 305 305 305 305 305 304 304 304 303 303 301 300 300 299 299 298 297 298 296 295 294 294 294 293 292 291 291 290 289 289 289 288 287 287 289 286 286 287 288 288
Wind_Speed
14 14 14 12 11 9 10 10 9 9 7 5 5 5 6 6 8 7 5 5 3 4 4 4 4 4 3 4 4 5 6 9 17 22 23 26 27 26 28 29 29 32 35
21 20 18 11 7 13 14 13 11 8 7 5 6 6 5 5 6 7 7 3 3 3 5 5 5 5 6 4 7 7 8 11 14 23 26 27 27 28 30 31 33 29 29
17 12 9 8 7 7 9 10 11 12 12 11 11 8 7 5 6 6 5 2 2 4 4 4 4 5 6 11 10 11 9 12 18 18 25 24 25 28 30 30 32 39 33
11 8 7 6 5 5 5 6 7 7 7 10 9 7 5 4 2 2 3 2 5 5 9 9 6 7 11 16 13 20 14 20 20 25 25 25 25 28 28 34 34 41 46
10 9 7 4 7 9 7 11 11 8 6 3 2 4 3 4 5 7 10 8 8 8 11 11 9 13 14 16 17 20 21 22 26 27 28 29 29 32 32 31 37 44 52
11 11 7 7 4 3 2 1 9 11 11 13 11 8 12 10 7 13 15 12 10 11 13 11 13 17 17 15 20 18 21 26 28 29 31 31 34 31 31 35 42 45 47
9 7 9 9 8 5 5 8 8 5 5 7 8 10 9 8 9 13 15 13 14 15 16 13 13 13 16 23 25 23 29 28 29 28 35 33 35 36 35 43 43 41 43
7 7 4 4 6 5 9 9 6 4 8 11 10 9 11 14 13 14 15 17 18 20 14 17 19 20 20 24 23 29 30 30 29 34 37 34 36 37 40 39 36 42 44
8 9 9 11 8 8 8 9 8 9 10 10 10 11 13 15 12 16 18 20 21 17 19 19 22 23 25 24 26 30 30 35 40 32 27 32 29 22 23 27 33 42 43
8 9 8 9 8 9 9 10 11 13 13 13 15 16 15 17 17 19 21 22 21 19 21 24 21 21 24 26 23 28 36 40 26 28 29 25 26 26 25 26 35 37 42
6 6 7 7 9 10 12 12 11 13 14 15 18 19 20 21 21 23 22 22 23 25 26 19 19 21 23 23 28 34 35 25 28 30 31 31 31 25 26 31 37 37 41
7 6 6 8 8 9 10 11 12 14 15 16 18 21 21 21 23 25 23 21 23 25 27 22 17 22 26 31 32 22 21 26 29 29 30 27 33 31 28 38 45 40 35
6 6 7 7 9 11 13 14 16 17 17 18 19 20 21 21 23 18 12 15 19 19 13 11 19 25 28 31 17 21 22 25 24 24 31 32 28 30 36 38 37 35 48
7 9 10 12 12 12 15 17 19 19 18 18 20 20 23 24 23 23 24 16 8 9 14 18 20 27 23 17 20 18 17 21 26 28 27 27 31 37 32 36 35 44 54
8 9 13 16 18 17 16 19 18 15 15 13 16 18 14 12 11 13 13 11 13 15 21 25 25 14 15 18 18 20 22 23 25 25 25 33 31 32 37 34 37 40 47
15 15 16 16 17 19 15 14 14 12 13 13 11 9 9 10 12 12 13 13 14 15 16 16 12 14 18 18 21 21 22 23 24 27 29 25 33 34 34 36 35 39 47
14 18 15 12 13 12 10 11 11 11 13 10 9 6 7 11 10 12 10 11 12 8 11 12 12 17 18 19 19 20 22 23 26 25 23 32 30 30 34 34 35 39 52
5 10 13 9 11 14 12 12 9 11 13 12 12 11 11 10 8 8 8 10 11 9 13 14 15 18 18 19 20 21 22 25 25 23 28 27 28 29 31 33 35 41 48
10 12 11 9 11 10 11 14 11 13 12 12 10 13 14 9 8 7 11 13 9 8 9 15 17 18 19 20 21 22 22 22 22 25 26 25 27 27 32 32 39 47 40
11 13 16 17 11 12 13 12 15 14 16 13 13 16 11 10 7 11 16 16 14 14 15 16 17 19 20 21 22 21 20 21 23 25 25 24 22 29 31 33 43 40 37
11 12 11 10 12 13 14 13 17 18 17 13 15 15 16 13 12 15 14 12 15 15 16 16 16 18 20 20 21 20 20 21 23 23 20 22 28 32 29 37 40 34 32
10 12 13 13 12 14 17 18 17 22 18 17 19 20 21 22 21 15 13 15 15 14 15 18 18 18 19 20 21 20 21 21 21 20 25 31 37 35 32 38 33 29 29
12 13 14 15 17 18 20 20 20 23 24 23 22 23 27 23 17 15 14 15 15 14 19 20 20 19 18 19 20 20 19 21 22 25 32 35 37 34 36 32 27 26 28
14 14 16 18 19 20 21 21 22 25 27 29 26 24 23 21 18 21 22 23 21 23 20 22 17 16 18 20 19 17 20 25 27 29 32 36 35 35 32 24 22 24 25
14 14 15 17 20 22 23 25 24 26 31 29 29 26 30 27 23 20 20 20 18 16 17 19 15 17 19 20 20 21 21 24 28 31 34 31 32 33 27 20 21 21 21
17 18 18 19 22 22 21 23 25 27 30 33 37 40 38 28 25 27 23 24 18 14 15 16 16 17 18 18 20 22 23 25 30 32 29 34 32 31 23 18 17 18 19
Wind_Direction
133 136 128 124 125 123 156 157 162 198 148 137 134 137 129 125 134 149 117 95 86 75 75 62 44 27 54 21 9 324 322 316 308 310 313 318 320 324 324 321 323 315 316
155 153 149 156 151 155 149 150 135 142 131 127 141 126 118 124 118 125 140 103 91 65 19 16 360 358 28 342 331 329 337 318 311 302 315 318 322 319 318 318 314 311 307
154 157 154 135 126 127 146 151 171 178 173 168 162 153 146 138 136 130 138 135 62 341 309 298 303 318 319 325 337 335 328 313 303 314 306 312 311 311 313 313 303 306 315
172 164 158 172 178 170 185 197 225 208 205 202 196 186 158 127 116 116 22 333 281 269 286 302 316 320 288 319 326 339 327 326 330 314 311 309 312 313 309 312 312 307 310
223 184 169 152 196 213 206 191 197 192 164 129 182 197 193 223 237 225 232 254 246 258 269 290 304 282 309 304 321 326 321 322 324 320 313 311 313 310 318 308 305 303 308
144 140 142 175 129 94 124 165 198 212 205 204 209 208 243 229 229 259 267 281 286 284 287 272 274 289 303 298 322 309 311 312 316 316 311 305 305 308 302 302 301 308 308
169 184 212 186 171 184 237 270 225 215 226 228 226 237 256 268 242 258 269 281 290 296 298 294 288 288 286 298 297 288 299 295 304 307 305 299 297 300 296 298 305 304 305
154 193 210 200 250 203 225 261 270 238 245 256 261 255 248 250 258 268 281 287 293 297 304 306 295 292 290 297 289 293 292 291 296 298 302 297 293 291 293 298 300 306 306
191 212 207 206 207 211 219 238 243 263 270 264 258 245 249 263 265 267 276 282 294 296 291 294 292 292 287 285 285 284 291 301 310 311 303 296 298 310 302 293 301 314 305
202 204 205 200 209 217 230 240 249 253 262 256 264 272 271 272 271 269 268 275 280 281 286 287 289 285 289 289 288 300 305 308 316 320 323 321 315 313 299 292 311 312 303
192 190 205 219 221 231 236 244 253 257 258 257 257 258 257 264 269 269 266 265 269 270 291 286 279 286 292 290 297 299 303 314 315 313 319 323 315 311 301 304 314 312 300
203 206 208 223 237 252 254 257 261 268 270 274 275 277 278 279 279 276 271 267 270 276 293 284 273 283 282 285 293 300 304 309 307 313 314 311 311 313 305 312 317 316 299
212 209 224 239 247 252 265 276 281 282 283 283 286 285 289 289 290 282 277 277 286 286 288 285 273 274 284 301 305 315 313 307 313 311 306 309 310 310 315 317 314 307 310
217 233 244 258 271 278 277 279 280 279 281 286 287 290 295 292 292 284 279 290 289 296 281 274 282 291 304 319 314 318 319 313 312 311 308 311 313 318 315 317 313 315 322
245 259 262 267 275 280 275 283 287 280 282 283 281 297 301 298 294 292 300 283 254 261 277 290 301 313 315 311 315 317 317 316 316 313 314 318 319 315 319 318 316 319 320
241 255 268 281 284 280 287 279 279 264 277 281 289 307 278 318 320 309 300 296 290 290 297 311 320 319 309 317 318 317 318 318 318 316 322 318 317 319 319 321 319 322 323
259 268 275 284 285 292 288 285 277 280 289 292 279 289 324 329 335 334 324 330 322 284 301 322 306 299 311 312 314 316 317 318 316 316 318 320 323 318 323 321 323 324 326
262 259 289 276 276 270 284 274 276 268 268 270 271 271 288 294 319 337 337 339 349 308 302 313 306 306 311 313 315 316 316 317 315 313 323 323 322 324 324 325 324 325 328
266 277 280 266 271 279 269 275 270 266 263 271 253 264 270 267 305 316 303 302 314 308 297 304 307 312 314 315 314 313 314 317 317 323 323 322 325 327 325 323 320 325 330
261 261 262 276 271 262 263 255 259 256 258 250 263 273 254 243 289 317 304 295 293 299 296 301 302 305 311 311 314 314 314 319 322 320 319 322 324 318 326 319 320 329 332
258 269 265 276 276 264 273 271 267 262 260 262 268 260 262 261 252 288 289 271 286 286 296 298 302 303 306 310 313 315 314 315 315 318 317 311 313 324 322 314 326 330 333
256 258 267 264 271 267 268 261 267 273 268 262 263 266 261 257 262 268 260 267 274 281 295 296 295 294 299 308 310 311 313 314 311 303 305 309 316 323 314 323 330 331 335
259 262 265 269 272 271 270 273 270 271 267 262 264 267 267 261 258 259 250 268 277 272 281 283 294 296 296 304 306 306 310 299 299 305 310 316 319 321 324 327 332 332 331
257 264 269 275 278 278 279 279 273 271 266 264 258 260 259 263 252 241 256 280 266 272 275 286 299 292 293 302 303 303 295 297 301 306 311 315 318 322 326 330 331 327 328
248 259 265 271 277 282 285 287 288 283 279 276 279 269 262 268 254 255 249 252 271 262 277 296 290 295 298 299 303 296 292 294 299 305 310 316 319 323 328 325 325 330 335
250 258 266 273 280 284 282 281 283 283 283 283 277 270 262 251 250 240 241 259 241 272 291 290 293 292 297 299 295 294 294 298 302 308 313 317 319 322 322 320 327 329 330